Flag for Benin Weather past 2 weeks in Porto Novo, Benin

Now
77 °F

Partly cloudy.


Feels Like: 78 °F
Forecast: 75 / 83 °F
Wind: 5 mph from Southwest

Location: Cotonou Airport

Current Time: Jul 4, 2015 at 1:21:52 AM

Latest Report: Jul 4, 2015 at 12:00 AM


Visibility: 5 mi

Pressure: 29.95 "Hg

Humidity: 94%

Dew point: 75 °F

Location of Porto NovoLocation

Historic Weather in Porto Novo — Graph

°F

Porto Novo temperature yesterday

Maximum temperature yesterday: 82 °F (at 1:00 PM)
Minimum temperature yesterday: 77 °F (at 2:00 AM)
Average temperature yesterday: 79 °F

Past Weeks' High & Low Weather Summary

 TemperatureHumidityPressure
High86 °F (Jun 19, 12:00 PM)100% (Jun 20, 9:00 PM)30.09 "Hg (Jun 20, 9:00 PM)
Low72 °F (Jun 20, 2:00 PM)74% (Jun 24, 4:00 PM)29.86 "Hg (Jun 19, 2:00 AM)
Average79 °F89%29.95 "Hg
* Reported Midnight between Jun 18 and Jun 19 — Midnight between Jul 3 and Jul 4, Porto Novo, Weather by CustomWeather, © 2015

Note: Actual official high and low records may vary slightly from our data, if they occured in-between our weather recording intervals... More about our weather records

Advertising

Porto Novo weather history for previous 24 hours

 ConditionsComfort  
Time TempWeatherWind HumidityBarometerVisibility
12:00 AM
Sat, Jul 4
77 °FPartly cloudy.5 mph94%29.95 "Hg5 mi
11:00 PM
Fri, Jul 3
77 °FPartly cloudy.9 mph94%29.95 "Hg5 mi
10:00 PM77 °FPartly cloudy.9 mph100%29.95 "Hg5 mi
9:00 PM77 °FLight rain. Partly cloudy.8 mph94%29.92 "Hg5 mi
8:00 PM77 °FLight rain. Partly cloudy.8 mph94%29.92 "Hg5 mi
7:00 PM79 °FBroken clouds.9 mph89%29.89 "HgN/A
6:00 PM81 °FBroken clouds.10 mph89%29.89 "HgN/A
5:00 PM81 °FBroken clouds.12 mph89%29.89 "HgN/A
4:00 PM81 °FBroken clouds.9 mph89%29.89 "HgN/A
3:00 PM81 °FBroken clouds.9 mph89%29.92 "HgN/A
2:00 PM82 °FBroken clouds.9 mph84%29.92 "HgN/A
1:00 PM82 °FBroken clouds.8 mph84%29.92 "HgN/A
12:00 PM81 °FBroken clouds.10 mph89%29.95 "HgN/A
11:00 AM79 °FBroken clouds.9 mph94%29.95 "HgN/A
10:00 AM81 °FBroken clouds.9 mph89%29.95 "HgN/A
9:00 AM79 °FBroken clouds.9 mph94%29.92 "HgN/A
8:00 AM79 °FBroken clouds.8 mph94%29.92 "Hg5 mi
7:00 AM77 °FScattered clouds.7 mph94%29.89 "Hg5 mi
6:00 AM77 °FPassing clouds.8 mph94%29.89 "Hg5 mi
5:00 AM77 °FPassing clouds.7 mph94%29.89 "Hg5 mi
4:00 AM77 °FPassing clouds.8 mph94%29.89 "Hg5 mi
3:00 AM77 °FPassing clouds.5 mph94%29.89 "Hg5 mi
2:00 AM77 °FPassing clouds.6 mph94%29.89 "Hg5 mi
1:00 AM79 °FPassing clouds.3 mph94%29.92 "Hg5 mi
Weather by CustomWeather, © 2015

See weather overviewHow to use our weather pages